GW0118 Weather Reports


time (UTC)temp
C
wind
direction
speed
KPH
gust
KPH
rain 1hr
cm
rain 24hr
cm
rain mn
cm
humidity
%
barometer
mb
20260902114606 29 277 11.3 22.5 0.00 0.00 0.00 27 1025.6
20260902113112 29 270 12.9 20.9 0.00 0.00 0.00 28 1025.8
20260902111604 29 245 8.0 16.1 0.00 0.00 0.00 30 1025.9
20260902110101 28 169 3.2 19.3 0.00 0.00 0.00 30 1025.9
20260902104602 28 280 6.4 19.3 0.00 0.00 0.00 29 1026.0
20260902103104 28 263 1.6 11.3 0.00 0.00 0.00 32 1026.0
20260902101623 27 264 6.4 12.9 0.00 0.00 0.00 35 1026.1
20260902100100 26 242 3.2 16.1 0.00 0.00 0.00 36 1026.2
20260902094600 26 221 6.4 14.5 0.00 0.00 0.00 39 1026.2
20260902093101 25 268 3.2 9.7 0.00 0.00 0.00 44 1026.1
20260902091605 25 189 4.8 9.7 0.00 0.00 0.00 43 1026.0
20260902090127 24 0 0.0 1.6 0.00 0.00 0.00 55 1025.8
20260902084604 23 44 0.0 1.6 0.00 0.00 0.00 62 1025.7
20260902083110 21 0 0.0 1.6 0.00 0.00 0.00 65 1025.5
20260902081608 20 0 1.6 4.8 0.00 0.00 0.00 68 1025.6
20260902080110 18 51 1.6 6.4 0.00 0.00 0.00 70 1025.5
20260902074601 17 47 3.2 6.4 0.00 0.00 0.00 71 1025.4
20260902073101 16 80 3.2 3.2 0.00 0.00 0.00 73 1025.5
20260902071605 15 56 1.6 4.8 0.00 0.00 0.00 73 1025.3
20260902070109 15 0 1.6 4.8 0.00 0.00 0.00 72 1025.2
20260902064607 14 0 0.0 0.0 0.00 0.00 0.00 72 1025.1
20260902063102 13 0 0.0 1.6 0.00 0.00 0.00 75 1025.0
20260902061623 13 98 0.0 0.0 0.00 0.00 0.00 74 1024.9
20260902060106 12 0 0.0 0.0 0.00 0.00 0.00 76 1024.9
20260902054605 12 0 0.0 1.6 0.00 0.00 0.00 77 1024.8
20260902053105 12 0 0.0 1.6 0.00 0.00 0.00 77 1024.8
20260902051603 12 79 0.0 3.2 0.00 0.00 0.00 76 1024.6
20260902050107 12 73 0.0 3.2 0.00 0.00 0.00 76 1024.5
20260902044610 12 0 0.0 0.0 0.00 0.00 0.00 74 1024.4
20260902043104 12 0 0.0 1.6 0.00 0.00 0.00 74 1024.2
20260902041608 12 0 0.0 1.6 0.00 0.00 0.00 73 1024.3
20260902040104 12 104 0.0 3.2 0.00 0.00 0.00 74 1024.2
20260902034602 13 0 0.0 1.6 0.00 0.00 0.00 72 1024.2
20260902033113 13 0 0.0 1.6 0.00 0.00 0.00 70 1024.4
20260902031602 13 0 0.0 1.6 0.00 0.00 0.00 69 1024.2
20260902030118 13 0 0.0 0.0 0.00 0.00 0.00 69 1024.1
20260902024559 14 0 0.0 4.8 0.00 0.00 0.00 70 1024.0
20260902023114 14 64 0.0 3.2 0.00 0.00 0.00 69 1024.0
20260902021619 14 0 0.0 1.6 0.00 0.00 0.00 65 1023.9
20260902020103 15 0 0.0 1.6 0.00 0.00 0.00 66 1024.0
20260902014600 15 96 1.6 4.8 0.00 0.00 0.00 66 1024.1
20260902013100 15 0 0.0 0.0 0.00 0.00 0.00 61 1024.0
20260902011605 15 0 0.0 0.0 0.00 0.00 0.00 60 1023.9
20260902004609 15 0 0.0 1.6 0.00 0.00 0.00 60 1024.2
20260902003104 16 9 0.0 3.2 0.00 0.00 0.00 56 1024.2
20260902001605 16 0 0.0 0.0 0.00 0.00 0.00 56 1024.1
20260902000106 17 0 0.0 1.6 0.00 0.00 0.00 54 1024.2
20260901234616 17 0 0.0 1.6 0.00 0.00 0.00 51 1024.1
20260901233105 17 0 0.0 4.8 0.00 0.00 0.00 51 1024.2
20260901231603 17 120 0.0 1.6 0.00 0.00 0.00 50 1024.3
20260901230139 17 359 0.0 1.6 0.00 0.00 0.00 48 1024.2
20260901224605 18 0 0.0 0.0 0.00 0.00 0.00 47 1024.0
20260901223119 18 0 0.0 1.6 0.00 0.00 0.00 46 1023.7
20260901221600 18 0 0.0 1.6 0.00 0.00 0.00 45 1023.6
20260901220108 18 0 0.0 1.6 0.00 0.00 0.00 44 1023.6
20260901214606 18 119 1.6 4.8 0.00 0.00 0.00 44 1023.7
20260901213107 19 57 0.0 8.0 0.00 0.00 0.00 43 1023.6
20260901211603 20 65 4.8 6.4 0.00 0.00 0.00 42 1023.4
20260901210105 21 0 0.0 3.2 0.00 0.00 0.00 41 1023.4
20260901204606 21 0 0.0 9.7 0.00 0.00 0.00 39 1023.3
20260901203110 21 106 3.2 8.0 0.00 0.00 0.00 39 1023.0
20260901201612 22 0 0.0 0.0 0.00 0.00 0.00 39 1022.7
20260901200108 23 0 0.0 0.0 0.00 0.00 0.00 34 1022.6
20260901194608 24 147 0.0 1.6 0.00 0.00 0.00 33 1022.3
20260901193106 25 214 0.0 6.4 0.00 0.00 0.00 31 1022.0
20260901191605 26 243 1.6 4.8 0.00 0.00 0.00 31 1021.8
20260901190110 26 184 0.0 6.4 0.00 0.00 0.00 30 1021.6
20260901184601 27 235 1.6 8.0 0.00 0.00 0.00 29 1021.5
20260901183110 28 265 1.6 8.0 0.00 0.00 0.00 27 1021.3
20260901181605 28 248 4.8 11.3 0.00 0.00 0.00 26 1021.4
20260901180107 28 240 4.8 17.7 0.00 0.00 0.00 26 1021.4
20260901174604 28 347 9.7 19.3 0.00 0.00 0.00 25 1021.5
20260901173112 28 298 12.9 20.9 0.00 0.00 0.00 25 1021.4
20260901171620 28 275 9.7 24.1 0.00 0.00 0.00 25 1021.3
20260901170108 29 265 14.5 33.8 0.00 0.00 0.00 26 1021.2
20260901164635 30 257 12.9 25.7 0.00 0.00 0.00 26 1021.1
20260901163103 30 277 14.5 24.1 0.00 0.00 0.00 27 1021.1
20260901161608 30 264 12.9 27.4 0.00 0.00 0.00 26 1021.1
20260901160106 30 270 9.7 32.2 0.00 0.00 0.00 26 1021.0
20260901154605 30 288 14.5 27.4 0.00 0.00 0.00 28 1021.0
20260901153103 30 262 16.1 29.0 0.00 0.00 0.00 28 1021.1
20260901151605 30 247 8.0 27.4 0.00 0.00 0.00 29 1021.1
20260901150108 30 202 6.4 24.1 0.00 0.00 0.00 28 1021.1
20260901144606 30 267 9.7 22.5 0.00 0.00 0.00 30 1021.3
20260901143106 30 277 11.3 27.4 0.00 0.00 0.00 28 1021.4
20260901141610 30 199 12.9 29.0 0.00 0.00 0.00 29 1021.4
20260901140105 29 250 11.3 29.0 0.00 0.00 0.00 31 1021.5
20260901134604 29 199 17.7 27.4 0.00 0.00 0.00 31 1021.5
20260901133103 29 276 14.5 29.0 0.00 0.00 0.00 30 1021.7
20260901131608 29 246 11.3 27.4 0.00 0.00 0.00 30 1022.0
20260901124604 28 302 16.1 25.7 0.00 0.00 0.00 33 1021.9
20260901123102 28 186 16.1 29.0 0.00 0.00 0.00 34 1022.0
20260901121613 28 272 8.0 22.5 0.00 0.00 0.00 34 1022.2